Hourly Weather Roundup
Issued by NWS Central Illinois

Home | Current Version | Previous Version | Text Only | Print | Product List | Glossary On
Versions: 1 2 3 4 5 6 7 8 9 10 11 12 13 14 15 16 17 18 19 20 21 22 23 24 25 26 27 28 29 30 31 32 33 34 35 36 37 38 39 40 41 42 43 44 45 46 47 48 49 50
000
NZUS43 KILX 050710
HWRILX

AREA WEATHER ROUNDUP
NATIONAL WEATHER SERVICE, LINCOLN IL
200 AM CDT WED AUG 05 2015


CITY           SKY/WX    TMP DP  RH WIND       PRES   REMARKS
BLOOMINGTON    PTCLDY    67  63  87 CALM      30.04F
CHAMPAIGN      MOCLDY    66  61  84 E3        30.03F
DANVILLE       PTCLDY    62  60  94 N5        30.01S
DECATUR        MOCLDY    67  63  87 CALM      30.03F
EFFINGHAM      MOCLDY    67  65  91 CALM      30.04F
FLORA          PTCLDY    69  68  97 NE6       30.02F
GALESBURG      PTCLDY    62  61  97 CALM      30.03F
JACKSONVILLE   CLOUDY    69  65  87 E3        30.02F
LACON          CLEAR     63  60  93 CALM      30.02S
LAWRENCEVILLE  PTCLDY    69  66  90 CALM      30.03S
LITCHFIELD     PTCLDY    69  65  86 E3        30.03F
$$


CITY           SKY/WX    TMP DP  RH WIND       PRES   REMARKS
LINCOLN        MOCLDY    69  65  85 CALM      30.03R
MACOMB         PTCLDY    63  62  97 CALM      30.05S
MATTOON        MOCLDY    66  62  87 N5        30.02F
MT CARMEL AP   PTCLDY    70  64  83 NE3       30.02F
OLNEY-NOBLE AP PTCLDY    66  66 100 CALM      30.03S
PARIS          MOCLDY    62  61  97 CALM      30.05S
PEORIA         CLEAR     67  62  84 CALM      30.03F
PONTIAC        CLEAR     62  61  97 CALM      30.03F
RANTOUL        PTCLDY    70  63  79 CALM      30.03F
ROBINSON       MOCLDY    66  65  97 CALM      30.03F
SPRINGFIELD    MOCLDY    68  64  87 N3        30.03F
TAYLORVILLE    MOCLDY    63  63 100 CALM      30.03S
$$

...REGIONAL REPORTS...


CITY           SKY/WX    TMP DP  RH WIND       PRES   REMARKS
CHICAGO O`HARE PTCLDY    65  58  78 CALM      30.03S
KANKAKEE       CLEAR     62  59  91 CALM      30.04F
MOLINE         PTCLDY    64  61  90 CALM      30.03S
MOUNT STERLING NOT AVBL
MOUNT VERNON   MOCLDY    70  64  83 N3        30.00F
PITTSFIELD     MOCLDY    70  66  88 E3        30.03S
QUINCY         PTCLDY    69  64  84 SE5       30.01F
ROCKFORD       MOCLDY    59  55  87 S3        30.05S
$$


CITY           SKY/WX    TMP DP  RH WIND       PRES   REMARKS
BURLINGTON     PTCLDY    67  66  97 E3        30.01F
CEDAR RAPIDS   CLOUDY    65  59  81 E3        30.03S
DES MOINES     MOCLDY    70  62  76 E7        30.00F
KIRKSVILLE     PTCLDY    67  64  90 E6        30.00F
OTTUMWA        CLOUDY    68  64  87 E5        30.00F
ST LOUIS       CLOUDY    76  68  76 E8        30.00F
$$


CITY           SKY/WX    TMP DP  RH WIND       PRES   REMARKS
TERRE HAUTE    CLOUDY    65  63  93 N3        30.03F
EVANSVILLE     MOCLDY    70  69  97 CALM      30.01F FOG
INDIANAPOLIS   MOCLDY    68  60  75 CALM      30.03R
LAFAYETTE      CLEAR     61  59  93 CALM      30.03S
MADISON        CLEAR     58  54  86 CALM      30.04S
MILWAUKEE      PTCLDY    63  55  75 CALM      30.03S
$$




USA.gov is the U.S. government's official web portal to all federal, state and local government web resources and services.